Weather History for Fredericksburg, VA

Change the Weather History Date:

Monday, August 11, 2014

  Actual Average (KNYG) Record (KNYG)
Temperature  
Mean Temperature 72 °F -  
Max Temperature 83 °F 83 °F 97 °F (2010)
Min Temperature 61 °F 67 °F 60 °F (2008)
Cooling Degree Days 7    
Growing Degree Days 22 (Base 50)    
Moisture  
Dew Point 66 °F    
Average Humidity 84    
Maximum Humidity 100    
Minimum Humidity 48    
Precipitation  
Precipitation 0.06 in - - ()
Sea Level Pressure  
Sea Level Pressure 30.08 in    
Wind  
Wind Speed 1 mph (SSE)    
Max Wind Speed 8 mph    
Max Gust Speed -    
Visibility 10 miles    
Events Fog , Rain    
Averages and records for this station are not official NWS values.
T = Trace of Precipitation, MM = Missing Value Source: NWS Daily Summary

Daily Weather History Graph

Daily Weather History Graph

Search for Another Location

Airport:

Trip Planner

Search our weather history database for the weather conditions in past years. The results will help you decide how hot, cold, wet, or windy it might be!

Date:

Astronomy

Aug. 11, 2014 Rise Set
Actual Time 6:20 AM EDT 8:08 PM EDT
Civil Twilight 5:52 AM EDT 8:36 PM EDT
Nautical Twilight 5:17 AM EDT 9:11 PM EDT
Astronomical Twilight 4:40 AM EDT 9:47 PM EDT
Moon 8:37 PM EDT (8/11) 7:21 AM EDT (8/11)
Length of Visible Light 14h 44m
Length of Day
13h 47m
Full, 99% of the Moon is Illuminated
Aug 11
Full
Aug 17
Last Quarter
Aug 25
New
Sep 2
First Quarter
Sep 8
Full

Hourly Weather History & Observations

Time (EDT) Temp. Heat Index Dew Point Humidity Pressure Visibility Wind Dir Wind Speed Gust Speed Precip Events Conditions
12:15 AM 70.0 °F - 64.2 °F 82% 30.11 in 10.0 mi Calm Calm - N/A   Clear
12:35 AM 69.8 °F - 64.0 °F 82% 30.12 in 10.0 mi Calm Calm - N/A   Clear
12:55 AM 68.4 °F - 64.2 °F 87% 30.11 in 10.0 mi Calm Calm - N/A   Clear
1:15 AM 66.6 °F - 64.9 °F 95% 30.11 in 10.0 mi Calm Calm - N/A   Clear
1:35 AM 66.7 °F - 64.4 °F 92% 30.11 in 10.0 mi Calm Calm - N/A   Clear
1:55 AM 66.2 °F - 65.3 °F 97% 30.11 in 10.0 mi Calm Calm - N/A   Clear
2:15 AM 66.4 °F - 65.1 °F 96% 30.11 in 10.0 mi Calm Calm - N/A   Clear
2:35 AM 64.9 °F - 63.9 °F 96% 30.10 in 10.0 mi Calm Calm - N/A   Clear
2:55 AM 64.6 °F - 64.2 °F 99% 30.11 in 10.0 mi Calm Calm - N/A   Clear
3:15 AM 64.8 °F - 64.2 °F 98% 30.10 in 10.0 mi Calm Calm - N/A   Clear
3:35 AM 64.4 °F - 63.9 °F 98% 30.10 in 10.0 mi Calm Calm - N/A   Clear
4:15 AM 63.3 °F - 63.3 °F 100% 30.10 in 10.0 mi Calm Calm - N/A   Clear
4:35 AM 63.1 °F - 63.1 °F 100% 30.10 in 10.0 mi Calm Calm - N/A   Clear
4:55 AM 62.8 °F - 62.8 °F 100% 30.10 in 10.0 mi Calm Calm - N/A   Clear
5:15 AM 62.1 °F - 62.1 °F 100% 30.10 in 10.0 mi Calm Calm - N/A   Clear
5:35 AM 62.8 °F - 62.8 °F 100% 30.10 in 10.0 mi Calm Calm - N/A   Clear
5:55 AM 62.1 °F - 62.1 °F 100% 30.10 in 10.0 mi Calm Calm - N/A   Clear
6:15 AM 61.9 °F - 61.9 °F 100% 30.10 in 10.0 mi Calm Calm - N/A   Clear
6:35 AM 61.7 °F - 61.7 °F 100% 30.09 in 10.0 mi Calm Calm - N/A   Clear
6:55 AM 61.7 °F - 61.7 °F 100% 30.10 in 0.2 mi Calm Calm - N/A Fog Fog
7:15 AM 62.2 °F - 62.2 °F 100% 30.10 in 5.0 mi Calm Calm - N/A   Scattered Clouds
7:35 AM 63.0 °F - 63.0 °F 100% 30.11 in 10.0 mi Calm Calm - N/A   Clear
7:55 AM 63.9 °F - 63.9 °F 100% 30.11 in 10.0 mi Calm Calm - N/A   Clear
8:15 AM 65.3 °F - 65.3 °F 100% 30.11 in 10.0 mi Calm Calm - N/A   Clear
8:35 AM 67.3 °F - 66.4 °F 97% 30.11 in 10.0 mi Calm Calm - N/A   Clear
8:55 AM 70.0 °F - 66.7 °F 89% 30.11 in 10.0 mi Calm Calm - N/A   Clear
9:15 AM 72.1 °F - 66.9 °F 84% 30.11 in 10.0 mi Calm Calm - N/A   Clear
9:35 AM 73.6 °F - 64.6 °F 73% 30.11 in 10.0 mi East 3.5 mph - N/A   Clear
9:55 AM 74.7 °F - 64.8 °F 71% 30.12 in 10.0 mi East 3.5 mph - N/A   Clear
10:15 AM 75.7 °F - 65.1 °F 69% 30.12 in 10.0 mi East 4.6 mph - N/A   Clear
10:35 AM 76.1 °F - 65.1 °F 69% 30.12 in 10.0 mi SSE 4.6 mph - N/A   Clear
10:55 AM 76.3 °F - 65.3 °F 69% 30.12 in 10.0 mi South 5.8 mph - N/A   Scattered Clouds
11:15 AM 77.7 °F - 65.3 °F 65% 30.12 in 10.0 mi SE 4.6 mph - N/A   Scattered Clouds
11:35 AM 79.0 °F - 65.7 °F 64% 30.11 in 10.0 mi Calm Calm - N/A   Mostly Cloudy
11:55 AM 81.0 °F 82.9 °F 65.5 °F 59% 30.11 in 10.0 mi ESE 6.9 mph - N/A   Scattered Clouds
12:15 PM 81.5 °F 83.1 °F 64.6 °F 56% 30.10 in 10.0 mi SSE 4.6 mph - N/A   Scattered Clouds
12:35 PM 82.2 °F 83.8 °F 64.8 °F 55% 30.09 in 10.0 mi SSE 8.1 mph - N/A   Mostly Cloudy
12:55 PM 81.1 °F 82.5 °F 63.3 °F 55% 30.09 in 10.0 mi SE 4.6 mph - N/A   Mostly Cloudy
1:15 PM 82.9 °F 84.8 °F 65.1 °F 55% 30.08 in 10.0 mi SW 4.6 mph - N/A   Mostly Cloudy
1:35 PM 83.5 °F 84.3 °F 62.6 °F 49% 30.08 in 10.0 mi South 6.9 mph - N/A   Scattered Clouds
1:55 PM 82.8 °F 83.6 °F 62.6 °F 50% 30.07 in 10.0 mi SSE 5.8 mph - N/A   Scattered Clouds
2:15 PM 82.9 °F 83.7 °F 61.7 °F 49% 30.06 in 10.0 mi SSE 6.9 mph - N/A   Scattered Clouds
2:35 PM 82.8 °F 83.3 °F 61.2 °F 48% 30.06 in 10.0 mi SE 5.8 mph - N/A   Scattered Clouds
2:55 PM 82.0 °F 83.9 °F 65.3 °F 57% 30.06 in 10.0 mi West 4.6 mph - N/A   Scattered Clouds
3:15 PM 81.3 °F 83.5 °F 66.2 °F 60% 30.05 in 10.0 mi SW 5.8 mph - N/A   Scattered Clouds
3:35 PM 81.0 °F 82.7 °F 64.8 °F 58% 30.05 in 10.0 mi Calm Calm - N/A   Mostly Cloudy
3:55 PM 78.8 °F - 67.8 °F 69% 30.05 in 10.0 mi Calm Calm - N/A Rain Light Rain
4:15 PM 76.5 °F - 68.0 °F 75% 30.05 in 10.0 mi Calm Calm - N/A   Drizzle
4:35 PM 75.4 °F - 69.8 °F 83% 30.05 in 7.0 mi NW 5.8 mph - N/A Rain Light Rain
4:55 PM 74.5 °F - 72.7 °F 94% 30.05 in 10.0 mi NW 5.8 mph - 0.01 in   Light Drizzle
5:15 PM 73.9 °F - 72.7 °F 96% 30.04 in 10.0 mi NNW 3.5 mph - N/A   Mostly Cloudy
5:55 PM 73.4 °F - 72.0 °F 95% 30.04 in 10.0 mi NNW 4.6 mph - N/A Rain Light Rain
6:15 PM 72.9 °F - 71.8 °F 96% 30.03 in 10.0 mi WNW 5.8 mph - N/A   Drizzle
6:35 PM 72.5 °F - 72.3 °F 99% 30.03 in 7.0 mi WNW 5.8 mph - 0.02 in Rain Rain
7:15 PM 71.8 °F - 71.8 °F 100% 30.03 in 7.0 mi NNW 4.6 mph - N/A Rain Rain
7:35 PM 72.0 °F - 72.0 °F 100% 30.03 in 7.0 mi Calm Calm - 0.01 in Rain Heavy Rain
8:15 PM 72.0 °F - 72.0 °F 100% 30.02 in 10.0 mi ENE 3.5 mph - N/A   Drizzle
8:35 PM 72.0 °F - 72.0 °F 100% 30.02 in 7.0 mi Calm Calm - N/A   Drizzle
8:55 PM 72.0 °F - 72.0 °F 100% 30.02 in 10.0 mi Calm Calm - 0.02 in Rain Light Rain
9:15 PM 72.0 °F - 72.0 °F 100% 30.02 in 10.0 mi Calm Calm - N/A   Overcast
9:35 PM 72.0 °F - 72.0 °F 100% 30.02 in 10.0 mi Calm Calm - N/A   Overcast
9:55 PM 72.0 °F - 72.0 °F 100% 30.02 in 10.0 mi Calm Calm - N/A   Overcast